SCP
-0 -0 -0 0 -0 -0 -0 -0 0 0 0 0 0 0 0 0 0 0 0 -0 -0 -0 0 -0 -0 -0 -0 -0 -0 -0 0 -0 0 -0 -0 -0 -0 -0 -0 -0 -0 -0 -0 -0 -0 -0 -0 -0 -0
-0 -0 0 0 -0 -0 -0 0 0 0 0 0 0 0 0 0 0 0 0 -0 -0 0 0 -0 -0 -0 -0 -0 -0 -0 -0 -0 -0 -0 -0 -0 -0 -0 -0 -0 -0 -0 -0 -0 -0 -0 -0 -0 -0
0 0 0 0 -0 -0 -0 0 0 0 0 0 0 0 0 0 0 0 0 0 0 0 0 0 -0 -0 -0 -0 -0 -0 -0 -0 -0 -0 -0 -0 -0 -0 -0 -0 -0 -0 -0 -0 -0 -0 -0 -0 -0
0 0 0 0 -0 0 0 -0 0 0 0 0 0 0 0 0 0 0 0 0 0 0 0 0 -0 -0 -0 0 0 0 0 0 -0 -0 -0 -0 -0 -0 -0 -0 -0 -0 -0 -0 -0 -0 -0 -0 -0
0 0 0 0 0 0 0 -0 0 0 0 0 0 0 0 0 -0 0 0 -0 0 0 0 0 0 0 0 0 0 -0 -0 -0 -0 -0 -0 -0 -0 -0 -0 -0 -0 -0 -0 -0 -0 -0 -0 -0 -0
0 0 0 -0 0 0 0 -0 -0 -0 -0 0 0 0 0 0 0 0 0 -0 0 0 0 0 0 0 -0 0 0 0 -0 -0 -0 -0 -0 -0 -0 -0 -0 -0 -0 -0 -0 -0 -0 -0 -0 -0 -0
0 0 0 0 0 0 0 0 0 0 -0 -0 -0 0 0 -0 0 0 0 0 -0 -0 -0 0 0 0 0 0 -0 -0 -0 -0 -0 -0 -0 -0 -0 -0 -0 -0 -0 -0 -0 -0 -0 -0 -0 -0 -0
0 0 0 0 -0 0 0 0 0 -0 0 -0 0 0 0 -0 -0 0 0 0 0 0 0 -0 0 0 0 -0 -0 -0 -0 -0 -0 -0 -0 -0 -0 -0 -0 -0 -0 -0 -0 -0 -0 -0 -0 -0 -0
0 0 0 0 0 0 0 0 0 0 0 -0 0 0 0 -0 -0 -0 -0 0 0 0 -0 -0 -0 0 0 0 -0 -0 -0 -0 -0 -0 -0 -0 0 0 0 0 0 -0 -0 -0 -0 -0 -0 -0 -0
0 0 0 0 0 0 -0 0 -0 0 -0 -0 0 0 -0 -0 -0 -0 -0 -0 -0 -0 -0 -0 -0 -0 -0 -0 -0 -0 -0 0 0 0 0 0 0 0 0 0 0 0 0 -0 -0 0 0 0 0
0 0 0 0 0 0 0 0 0 0 0 -0 -0 -0 -0 -0 -0 -0 -0 -0 -0 -0 -0 -0 -0 -0 -0 -0 -0 0 0 0 0 0 0 0 0 0 0 0 0 0 0 0 0 0 0 0 0
0 0 0 0 0 0 0 0 0 0 0 0 0 0 -0 -0 -0 -0 -0 -0 -0 -0 -0 -0 -0 -0 -0 -0 -0 -0 0 0 0 0 0 0 0 0 0 0 0 0 0 0 0 0 0 0 0
0 0 0 0 0 0 0 0 0 0 -0 0 0 0 -0 -0 -0 -0 -0 0 0 -0 -0 -0 -0 -0 -0 -0 -0 0 0 0 0 0 0 0 0 0 0 0 0 0 0 0 0 0 0 0 0
0 0 0 0 0 0 0 0 0 0 0 0 0 0 0 0 -0 0 0 0 0 -0 -0 -0 -0 -0 -0 -0 -0 -0 0 0 0 0 0 0 0 0 0 0 0 0 0 0 0 0 0 0 0
0 0 0 0 0 0 0 0 0 0 0 0 0 0 0 0 0 0 0 0 0 0 0 -0 -0 -0 -0 -0 -0 -0 0 0 0 0 0 0 0 0 0 0 0 0 0 0 0 0 0 0 0
0 0 0 0 0 0 0 0 0 0 0 0 0 0 0 0 0 0 0 0 0 0 0 0 0 -0 -0 -0 -0 0 0 0 0 0 0 0 0 0 0 0 0 0 0 0 0 0 0 0 0
0 0 0 0 0 0 0 0 0 0 0 0 0 0 0 0 0 0 0 0 0 0 0 0 0 0 -0 -0 0 0 0 0 0 0 0 0 0 0 0 0 0 0 0 0 0 0 0 0 0
0 0 0 0 0 0 0 0 0 0 0 0 0 0 0 0 0 0 0 0 0 0 0 0 0 0 0 0 0 0 0 0 0 0 0 0 0 0 0 0 0 0 0 0 0 0 0 0 0
0 0 0 0 0 0 0 0 0 0 0 0 0 0 0 0 0 0 0 0 0 0 0 0 0 0 0 0 0 0 0 0 0 0 0 0 0 0 0 0 0 0 0 0 0 0 0 0 0
0 0 0 0 0 0 0 0 0 0 0 0 0 0 0 0 0 0 0 0 0 0 0 0 0 0 0 0 0 0 0 0 0 0 0 0 0 0 0 0 0 0 0 0 0 0 0 0 0
0 0 0 0 0 0 0 0 0 0 0 0 0 0 0 0 0 0 0 0 0 0 0 0 0 0 0 0 0 0 0 0 0 0 0 0 0 0 0 0 0 0 0 0 0 0 0 0 0
0 0 0 0 0 0 0 0 0 0 0 0 0 0 0 0 0 0 0 0 0 0 0 0 0 0 0 0 0 0 0 0 0 0 0 0 0 0 0 0 0 0 0 0 0 0 0 0 0
0 0 0 0 0 0 0 0 0 0 0 0 0 0 0 0 0 0 0 0 0 0 0 0 0 0 0 0 0 0 0 0 0 0 0 0 0 0 0 0 0 0 0 0 0 0 0 0 0
0 0 0 0 0 0 0 0 0 -0 -0 0 0 0 0 0 0 0 0 0 0 0 0 0 0 0 0 0 0 0 0 0 0 0 0 0 0 0 0 0 0 0 0 0 0 0 0 0 0
0 0 0 0 0 0 0 0 0 0 0 0 0 0 0 0 0 0 0 0 0 0 0 0 0 0 0 0 0 0 0 0 0 0 0 0 0 0 0 0 0 0 0 0 0 0 0 0 0
0 0 0 0 0 0 0 0 0 0 0 0 0 0 0 0 0 0 0 0 0 0 0 0 0 0 0 0 0 0 0 0 0 0 0 0 0 0 0 0 0 0 0 0 0 0 0 0 0
0 0 0 0 0 0 0 0 0 0 0 0 0 0 0 0 0 0 0 0 0 0 0 0 0 0 0 0 0 0 0 0 0 0 0 0 0 0 0 0 0 0 0 0 0 0 0 0 0
0 0 0 0 0 0 0 0 0 0 0 0 0 0 0 0 0 0 0 0 0 0 0 0 0 0 0 0 0 0 0 0 0 0 0 0 0 0 0 0 0 0 0 0 0 0 0 0 0
0 0 0 0 0 0 0 0 0 0 0 0 0 0 0 0 0 0 0 0 0 0 0 0 0 0 0 0 0 0 0 0 0 0 0 0 0 0 0 0 0 0 0 0 0 0 0 0 0
0 0 0 0 0 0 0 0 0 0 0 0 0 0 0 0 0 0 0 0 0 0 0 0 0 0 0 0 0 0 0 0 0 0 0 0 0 0 0 0 0 0 0 0 0 0 0 0 0
Wind_Speed_500mb
18 15 10 9 7 10 0 5 3 6 2 6 21 8 11 6 7 6 25 44 45 44 44 35 23 21 20 18 17 13 18 15 23 27 25 18 14 17 21 23 24 27 29 30 31 32 32 30 29
14 10 6 3 9 6 8 6 10 9 9 29 24 13 4 3 8 17 45 45 46 45 42 33 26 22 21 19 15 16 16 17 24 28 28 17 10 13 16 20 23 25 28 33 33 28 28 29 29
12 10 2 8 7 7 8 8 9 11 31 9 10 5 5 7 10 38 32 47 53 41 41 32 28 23 22 19 17 17 17 19 21 25 28 18 11 13 18 19 21 28 27 29 30 28 25 27 28
16 8 9 8 6 4 6 6 10 15 8 8 15 8 7 5 16 34 42 52 52 44 40 33 29 25 22 21 18 17 17 18 19 20 27 17 11 11 13 16 16 16 20 27 25 23 24 25 27
15 6 8 7 5 4 6 6 19 4 8 11 14 6 3 15 18 30 46 50 52 45 38 33 29 25 22 19 16 16 16 16 16 17 20 15 6 7 9 11 13 11 15 26 22 20 22 23 24
5 8 8 5 4 7 1 13 12 5 6 13 11 19 8 21 18 24 45 50 48 41 37 33 30 25 21 18 15 15 15 15 15 14 12 9 6 3 8 10 11 9 11 18 20 21 17 18 20
12 8 10 10 6 3 7 17 8 11 8 8 14 12 10 27 24 21 41 49 44 38 33 33 31 28 23 18 16 15 15 14 14 14 12 8 6 4 6 9 9 8 8 13 13 12 14 15 15
11 10 8 5 9 8 10 20 10 20 11 8 15 6 7 33 31 30 42 42 43 39 35 33 33 32 27 23 20 17 14 11 9 9 8 6 5 5 6 6 6 4 7 7 9 11 12 12 12
10 9 5 13 13 7 18 8 9 8 11 13 17 9 6 31 38 38 47 47 43 42 40 39 38 36 32 27 24 21 18 15 13 11 8 6 4 4 5 6 5 5 6 5 8 9 9 8 7
9 8 16 9 10 10 20 10 19 8 9 14 16 18 12 30 40 47 55 56 50 50 46 43 43 40 37 34 30 26 23 19 16 12 9 7 6 5 6 7 7 7 6 6 7 8 7 7 5
7 9 10 7 5 15 20 8 15 12 7 23 31 27 22 35 40 42 47 51 51 49 46 46 44 42 40 39 36 33 29 25 22 19 16 14 12 9 8 7 6 6 6 4 6 7 7 5 3
8 2 10 11 6 10 14 13 9 21 11 6 25 21 30 37 44 44 46 49 51 50 46 46 44 44 42 45 44 41 36 32 29 26 24 21 18 14 12 12 10 7 7 6 6 5 4 3 2
4 7 7 7 7 5 8 4 9 25 27 23 13 27 32 36 40 43 43 44 48 51 50 47 43 42 41 45 46 45 42 38 33 32 29 27 25 21 17 18 14 13 9 7 6 8 4 2 3
10 11 5 5 3 2 3 2 4 10 12 34 33 23 28 38 39 45 50 52 53 52 52 50 51 48 43 44 40 43 46 40 37 38 35 32 30 28 24 22 18 17 14 10 11 6 3 4 3
13 7 5 6 6 3 4 7 18 32 17 11 35 32 33 37 45 49 46 51 52 53 56 56 56 56 56 53 47 44 41 46 45 45 40 39 37 35 33 29 25 18 15 14 14 10 12 17 11
9 9 4 3 9 4 7 16 9 7 20 29 24 26 39 38 43 45 48 54 56 60 62 61 63 64 64 63 59 53 48 44 47 45 44 43 42 42 41 39 36 32 29 26 25 26 21 21 27
11 6 6 11 10 4 6 12 7 1 2 9 15 21 29 31 37 45 48 52 56 60 63 67 70 71 69 70 69 63 58 54 48 50 51 50 46 48 48 46 43 45 45 45 42 41 40 39 36
11 7 5 7 1 2 4 19 19 23 18 25 32 35 36 38 38 36 37 44 49 56 62 66 70 74 74 73 75 73 70 67 63 58 56 57 52 53 52 55 52 54 52 55 53 53 50 47 43
12 9 6 5 3 3 10 16 23 47 41 46 52 51 53 53 44 47 48 49 50 52 60 68 71 73 76 80 81 83 82 79 77 72 66 63 63 59 57 59 56 63 60 58 61 60 60 59 56
8 7 5 5 5 5 9 22 20 27 32 47 50 58 60 64 63 56 55 56 57 57 56 58 68 71 73 79 79 83 79 84 80 78 77 69 66 62 64 68 69 63 63 68 68 68 68 69 66
4 11 9 9 5 4 9 17 11 11 22 41 53 58 58 55 44 25 28 24 35 54 58 60 60 66 70 72 77 83 86 89 87 88 86 84 75 68 64 63 71 68 71 64 71 74 72 75 78
7 14 10 7 7 6 4 10 11 10 19 14 47 37 42 44 43 33 23 22 28 28 38 57 57 60 63 73 81 82 83 86 81 86 87 86 81 76 65 69 64 71 74 78 70 78 76 80 84
10 10 9 5 8 5 6 2 14 6 12 18 19 19 23 12 9 7 1 3 6 17 23 30 43 48 53 62 75 82 86 84 83 81 76 74 76 79 74 67 69 73 72 96 81 83 85 87 87
19 13 13 10 5 4 10 12 10 8 11 1 5 13 23 17 15 9 6 7 6 2 7 13 18 30 41 48 58 72 79 82 82 80 77 75 70 68 65 67 70 72 75 74 77 81 86 88 93
7 13 3 5 4 11 4 1 15 17 10 6 15 26 24 12 6 4 3 4 7 9 9 11 14 19 26 34 43 50 57 65 69 71 71 70 67 63 61 62 66 68 71 74 79 82 80 92 86
15 15 11 15 9 7 4 13 11 9 8 10 7 7 12 15 12 7 5 7 11 13 13 13 11 13 15 20 23 29 37 45 51 56 59 61 61 58 53 57 60 65 64 69 75 75 83 79 96
11 10 9 14 6 7 8 13 19 2 12 15 18 21 21 19 22 21 15 10 8 10 8 8 8 8 7 7 10 15 22 29 35 42 48 51 52 52 51 54 57 59 62 67 72 74 79 79 82
8 15 7 5 4 7 8 9 11 6 12 9 13 24 26 25 25 23 23 22 20 17 13 9 6 4 3 2 1 5 11 18 25 31 34 37 40 44 47 49 52 55 59 63 70 76 82 85 87
5 5 7 9 10 11 3 11 14 5 18 19 11 16 23 24 26 29 29 27 26 22 18 16 17 19 17 12 9 8 10 13 16 19 22 28 32 37 43 45 48 52 56 59 65 70 76 79 81
2 14 14 9 10 5 6 20 5 13 17 18 11 12 12 12 13 16 16 17 18 21 18 17 13 8 9 8 7 12 17 22 25 29 33 36 38 41 43 48 52 55 56 58 61 65 69 71 73
Wind_Direction_500mb
274 274 303 317 56 67 288 240 113 128 185 163 129 148 180 120 154 201 148 161 164 160 157 153 151 134 115 107 97 103 98 120 119 118 113 109 85 74 76 84 90 92 93 91 94 90 92 95 98
241 248 270 77 86 74 273 259 191 186 172 124 109 108 88 113 124 148 150 161 165 159 163 153 149 138 126 111 111 109 115 114 117 124 121 121 99 84 78 98 99 97 94 97 98 91 94 93 95
199 202 215 93 111 162 204 208 184 134 145 126 112 113 117 132 149 157 160 164 169 171 171 160 156 146 137 128 133 127 118 115 116 127 129 139 116 88 77 98 103 104 98 100 101 98 87 85 88
175 154 73 85 207 221 203 177 173 142 175 172 138 87 113 111 151 163 161 163 167 169 170 168 163 155 147 146 139 125 114 109 117 124 138 153 144 91 83 96 104 109 103 103 108 97 91 90 91
166 135 61 90 270 288 251 177 159 156 153 145 141 173 120 146 146 167 171 167 170 172 175 174 173 164 160 149 140 127 121 117 121 131 139 148 153 104 95 103 114 120 109 120 107 97 93 94 96
137 95 69 168 255 312 283 165 154 178 181 152 130 139 154 161 156 169 178 173 172 176 178 180 178 175 171 160 150 140 136 130 125 131 144 147 146 114 103 120 128 144 111 119 122 111 98 91 99
121 84 168 154 168 7 187 171 173 182 186 203 154 131 180 176 163 170 176 183 182 188 191 189 186 184 184 175 166 164 159 147 139 140 150 149 135 117 114 125 136 151 120 135 127 118 96 95 90
119 90 124 174 176 218 185 174 236 175 200 192 174 187 200 184 167 164 179 187 195 201 205 204 198 197 195 191 185 181 174 162 149 141 142 139 136 129 122 118 124 140 115 135 128 117 105 106 106
121 70 166 184 149 224 156 178 190 190 174 188 194 225 230 174 172 171 179 187 199 206 209 211 209 206 204 204 200 196 193 186 181 178 168 157 149 138 132 130 140 138 164 149 130 121 112 103 98
95 114 206 197 183 173 175 184 173 170 189 217 217 217 219 182 184 181 185 191 199 202 205 212 213 213 213 213 213 211 210 206 201 199 199 196 186 178 165 164 170 163 184 168 149 141 132 116 108
126 170 183 204 172 165 164 170 176 157 244 224 221 216 211 195 198 199 200 202 204 204 210 210 213 217 220 222 223 222 219 216 214 214 216 217 212 207 198 195 190 184 184 174 158 147 133 115 96
117 110 161 149 160 145 157 148 200 204 230 250 244 237 223 209 208 211 212 209 209 212 213 212 214 220 223 227 228 229 227 224 222 223 224 225 222 216 208 197 204 190 181 178 173 153 116 80 39
111 181 186 159 173 140 158 205 240 250 243 249 246 222 222 226 224 223 224 220 217 219 220 219 219 222 228 230 231 235 236 232 231 231 231 228 223 222 215 206 207 193 181 170 166 151 129 89 27
161 144 127 172 202 266 185 271 228 255 259 233 230 220 224 229 233 229 225 225 225 227 227 228 228 231 234 236 239 244 243 240 234 238 237 235 230 226 225 219 212 207 196 190 183 186 244 255 310
110 102 22 208 197 257 199 272 238 248 242 243 228 230 229 229 231 236 241 237 234 236 234 233 233 235 237 240 244 249 250 241 238 236 240 239 235 232 229 228 225 235 237 241 230 237 286 273 270
74 50 118 295 154 177 147 264 276 282 248 240 241 237 236 236 238 243 244 244 241 238 240 239 237 239 241 242 244 247 252 248 244 241 242 243 242 238 235 233 235 236 226 238 249 252 254 266 260
14 181 206 314 194 106 156 263 278 185 107 243 242 246 252 249 246 247 247 246 246 245 243 243 240 240 242 244 245 247 251 252 252 241 242 242 242 242 241 240 243 242 237 233 240 243 245 244 245
185 172 219 228 177 155 218 262 280 269 282 280 282 277 265 259 256 259 258 253 249 247 246 245 244 244 243 244 244 245 247 248 250 252 250 247 242 246 246 247 243 245 246 245 247 246 250 250 251
133 122 182 240 56 227 238 267 273 282 285 276 273 270 271 268 269 267 260 254 252 246 245 245 245 243 241 240 240 241 243 245 245 250 251 251 249 249 249 250 251 248 250 253 252 251 252 254 254
128 124 211 302 45 157 350 284 267 272 264 266 274 275 273 277 279 273 271 262 251 248 246 245 245 244 243 242 244 244 246 248 250 254 255 254 252 250 255 254 251 252 250 250 251 253 254 254 253
170 159 199 193 30 52 349 291 308 293 274 275 270 275 277 277 283 272 284 271 253 245 242 242 244 244 245 244 243 244 244 247 248 250 253 256 257 253 248 258 257 259 252 258 262 258 257 261 255
183 201 172 148 100 230 23 283 299 295 299 286 280 301 294 281 272 283 283 262 244 243 240 239 242 244 245 244 243 244 245 246 252 252 255 255 260 255 259 259 262 262 261 254 261 261 258 255 256
209 123 135 88 100 54 329 19 271 337 284 275 322 12 24 12 252 232 270 45 258 247 244 244 241 242 244 244 244 245 247 251 255 257 256 256 258 256 258 265 265 258 273 256 259 261 260 256 260
151 84 52 54 87 313 226 181 275 209 220 200 336 26 14 36 66 73 68 57 60 76 240 253 250 244 245 246 245 246 247 250 253 256 259 263 265 264 263 266 265 270 265 265 268 272 269 264 260
91 96 20 359 7 227 328 150 246 257 246 253 320 323 346 359 7 24 30 20 357 331 312 296 278 259 251 249 247 248 249 251 255 259 263 266 268 269 268 267 267 267 267 268 268 269 272 270 271
192 163 156 192 197 247 71 232 249 224 296 278 270 339 19 37 52 64 39 344 337 330 319 312 290 271 265 257 251 247 247 252 257 261 265 267 269 270 267 264 266 268 265 263 266 271 267 268 271
198 214 154 103 24 60 225 287 300 109 54 89 84 80 67 71 77 66 56 36 15 360 347 335 325 303 284 270 264 258 255 257 261 264 265 267 267 267 267 263 260 260 261 262 260 264 266 268 270
160 160 82 5 135 252 266 268 226 213 154 114 91 73 62 70 72 67 64 60 57 41 28 17 18 28 58 110 133 246 256 259 259 260 264 268 270 269 267 264 262 260 258 257 258 262 265 267 269
137 188 61 129 156 181 235 253 223 162 164 146 129 69 61 69 75 76 70 64 62 57 60 73 89 97 84 67 43 10 331 307 299 295 288 282 280 277 272 269 266 264 262 261 261 262 265 267 270
323 202 159 150 217 252 174 252 310 189 142 126 106 71 63 73 93 98 86 72 64 65 75 87 86 64 40 23 350 329 319 312 309 304 297 292 291 288 287 283 278 274 272 269 267 267 266 265 267
Wind_Speed_850mb
18 15 10 9 7 10 0 5 3 6 2 6 21 8 11 6 7 6 25 44 45 44 44 35 23 21 20 18 17 13 18 15 23 27 25 18 14 17 21 23 24 27 29 30 31 32 32 30 29
14 10 6 3 9 6 8 6 10 9 9 29 24 13 4 3 8 17 45 45 46 45 42 33 26 22 21 19 15 16 16 17 24 28 28 17 10 13 16 20 23 25 28 33 33 28 28 29 29
12 10 2 8 7 7 8 8 9 11 31 9 10 5 5 7 10 38 32 47 53 41 41 32 28 23 22 19 17 17 17 19 21 25 28 18 11 13 18 19 21 28 27 29 30 28 25 27 28
16 8 9 8 6 4 6 6 10 15 8 8 15 8 7 5 16 34 42 52 52 44 40 33 29 25 22 21 18 17 17 18 19 20 27 17 11 11 13 16 16 16 20 27 25 23 24 25 27
15 6 8 7 5 4 6 6 19 4 8 11 14 6 3 15 18 30 46 50 52 45 38 33 29 25 22 19 16 16 16 16 16 17 20 15 6 7 9 11 13 11 15 26 22 20 22 23 24
5 8 8 5 4 7 1 13 12 5 6 13 11 19 8 21 18 24 45 50 48 41 37 33 30 25 21 18 15 15 15 15 15 14 12 9 6 3 8 10 11 9 11 18 20 21 17 18 20
12 8 10 10 6 3 7 17 8 11 8 8 14 12 10 27 24 21 41 49 44 38 33 33 31 28 23 18 16 15 15 14 14 14 12 8 6 4 6 9 9 8 8 13 13 12 14 15 15
11 10 8 5 9 8 10 20 10 20 11 8 15 6 7 33 31 30 42 42 43 39 35 33 33 32 27 23 20 17 14 11 9 9 8 6 5 5 6 6 6 4 7 7 9 11 12 12 12
10 9 5 13 13 7 18 8 9 8 11 13 17 9 6 31 38 38 47 47 43 42 40 39 38 36 32 27 24 21 18 15 13 11 8 6 4 4 5 6 5 5 6 5 8 9 9 8 7
9 8 16 9 10 10 20 10 19 8 9 14 16 18 12 30 40 47 55 56 50 50 46 43 43 40 37 34 30 26 23 19 16 12 9 7 6 5 6 7 7 7 6 6 7 8 7 7 5
7 9 10 7 5 15 20 8 15 12 7 23 31 27 22 35 40 42 47 51 51 49 46 46 44 42 40 39 36 33 29 25 22 19 16 14 12 9 8 7 6 6 6 4 6 7 7 5 3
8 2 10 11 6 10 14 13 9 21 11 6 25 21 30 37 44 44 46 49 51 50 46 46 44 44 42 45 44 41 36 32 29 26 24 21 18 14 12 12 10 7 7 6 6 5 4 3 2
4 7 7 7 7 5 8 4 9 25 27 23 13 27 32 36 40 43 43 44 48 51 50 47 43 42 41 45 46 45 42 38 33 32 29 27 25 21 17 18 14 13 9 7 6 8 4 2 3
10 11 5 5 3 2 3 2 4 10 12 34 33 23 28 38 39 45 50 52 53 52 52 50 51 48 43 44 40 43 46 40 37 38 35 32 30 28 24 22 18 17 14 10 11 6 3 4 3
13 7 5 6 6 3 4 7 18 32 17 11 35 32 33 37 45 49 46 51 52 53 56 56 56 56 56 53 47 44 41 46 45 45 40 39 37 35 33 29 25 18 15 14 14 10 12 17 11
9 9 4 3 9 4 7 16 9 7 20 29 24 26 39 38 43 45 48 54 56 60 62 61 63 64 64 63 59 53 48 44 47 45 44 43 42 42 41 39 36 32 29 26 25 26 21 21 27
11 6 6 11 10 4 6 12 7 1 2 9 15 21 29 31 37 45 48 52 56 60 63 67 70 71 69 70 69 63 58 54 48 50 51 50 46 48 48 46 43 45 45 45 42 41 40 39 36
11 7 5 7 1 2 4 19 19 23 18 25 32 35 36 38 38 36 37 44 49 56 62 66 70 74 74 73 75 73 70 67 63 58 56 57 52 53 52 55 52 54 52 55 53 53 50 47 43
12 9 6 5 3 3 10 16 23 47 41 46 52 51 53 53 44 47 48 49 50 52 60 68 71 73 76 80 81 83 82 79 77 72 66 63 63 59 57 59 56 63 60 58 61 60 60 59 56
8 7 5 5 5 5 9 22 20 27 32 47 50 58 60 64 63 56 55 56 57 57 56 58 68 71 73 79 79 83 79 84 80 78 77 69 66 62 64 68 69 63 63 68 68 68 68 69 66
4 11 9 9 5 4 9 17 11 11 22 41 53 58 58 55 44 25 28 24 35 54 58 60 60 66 70 72 77 83 86 89 87 88 86 84 75 68 64 63 71 68 71 64 71 74 72 75 78
7 14 10 7 7 6 4 10 11 10 19 14 47 37 42 44 43 33 23 22 28 28 38 57 57 60 63 73 81 82 83 86 81 86 87 86 81 76 65 69 64 71 74 78 70 78 76 80 84
10 10 9 5 8 5 6 2 14 6 12 18 19 19 23 12 9 7 1 3 6 17 23 30 43 48 53 62 75 82 86 84 83 81 76 74 76 79 74 67 69 73 72 96 81 83 85 87 87
19 13 13 10 5 4 10 12 10 8 11 1 5 13 23 17 15 9 6 7 6 2 7 13 18 30 41 48 58 72 79 82 82 80 77 75 70 68 65 67 70 72 75 74 77 81 86 88 93
7 13 3 5 4 11 4 1 15 17 10 6 15 26 24 12 6 4 3 4 7 9 9 11 14 19 26 34 43 50 57 65 69 71 71 70 67 63 61 62 66 68 71 74 79 82 80 92 86
15 15 11 15 9 7 4 13 11 9 8 10 7 7 12 15 12 7 5 7 11 13 13 13 11 13 15 20 23 29 37 45 51 56 59 61 61 58 53 57 60 65 64 69 75 75 83 79 96
11 10 9 14 6 7 8 13 19 2 12 15 18 21 21 19 22 21 15 10 8 10 8 8 8 8 7 7 10 15 22 29 35 42 48 51 52 52 51 54 57 59 62 67 72 74 79 79 82
8 15 7 5 4 7 8 9 11 6 12 9 13 24 26 25 25 23 23 22 20 17 13 9 6 4 3 2 1 5 11 18 25 31 34 37 40 44 47 49 52 55 59 63 70 76 82 85 87
5 5 7 9 10 11 3 11 14 5 18 19 11 16 23 24 26 29 29 27 26 22 18 16 17 19 17 12 9 8 10 13 16 19 22 28 32 37 43 45 48 52 56 59 65 70 76 79 81
2 14 14 9 10 5 6 20 5 13 17 18 11 12 12 12 13 16 16 17 18 21 18 17 13 8 9 8 7 12 17 22 25 29 33 36 38 41 43 48 52 55 56 58 61 65 69 71 73
Wind_Direction_850mb
274 274 303 317 56 67 288 240 113 128 185 163 129 148 180 120 154 201 148 161 164 160 157 153 151 134 115 107 97 103 98 120 119 118 113 109 85 74 76 84 90 92 93 91 94 90 92 95 98
241 248 270 77 86 74 273 259 191 186 172 124 109 108 88 113 124 148 150 161 165 159 163 153 149 138 126 111 111 109 115 114 117 124 121 121 99 84 78 98 99 97 94 97 98 91 94 93 95
199 202 215 93 111 162 204 208 184 134 145 126 112 113 117 132 149 157 160 164 169 171 171 160 156 146 137 128 133 127 118 115 116 127 129 139 116 88 77 98 103 104 98 100 101 98 87 85 88
175 154 73 85 207 221 203 177 173 142 175 172 138 87 113 111 151 163 161 163 167 169 170 168 163 155 147 146 139 125 114 109 117 124 138 153 144 91 83 96 104 109 103 103 108 97 91 90 91
166 135 61 90 270 288 251 177 159 156 153 145 141 173 120 146 146 167 171 167 170 172 175 174 173 164 160 149 140 127 121 117 121 131 139 148 153 104 95 103 114 120 109 120 107 97 93 94 96
137 95 69 168 255 312 283 165 154 178 181 152 130 139 154 161 156 169 178 173 172 176 178 180 178 175 171 160 150 140 136 130 125 131 144 147 146 114 103 120 128 144 111 119 122 111 98 91 99
121 84 168 154 168 7 187 171 173 182 186 203 154 131 180 176 163 170 176 183 182 188 191 189 186 184 184 175 166 164 159 147 139 140 150 149 135 117 114 125 136 151 120 135 127 118 96 95 90
119 90 124 174 176 218 185 174 236 175 200 192 174 187 200 184 167 164 179 187 195 201 205 204 198 197 195 191 185 181 174 162 149 141 142 139 136 129 122 118 124 140 115 135 128 117 105 106 106
121 70 166 184 149 224 156 178 190 190 174 188 194 225 230 174 172 171 179 187 199 206 209 211 209 206 204 204 200 196 193 186 181 178 168 157 149 138 132 130 140 138 164 149 130 121 112 103 98
95 114 206 197 183 173 175 184 173 170 189 217 217 217 219 182 184 181 185 191 199 202 205 212 213 213 213 213 213 211 210 206 201 199 199 196 186 178 165 164 170 163 184 168 149 141 132 116 108
126 170 183 204 172 165 164 170 176 157 244 224 221 216 211 195 198 199 200 202 204 204 210 210 213 217 220 222 223 222 219 216 214 214 216 217 212 207 198 195 190 184 184 174 158 147 133 115 96
117 110 161 149 160 145 157 148 200 204 230 250 244 237 223 209 208 211 212 209 209 212 213 212 214 220 223 227 228 229 227 224 222 223 224 225 222 216 208 197 204 190 181 178 173 153 116 80 39
111 181 186 159 173 140 158 205 240 250 243 249 246 222 222 226 224 223 224 220 217 219 220 219 219 222 228 230 231 235 236 232 231 231 231 228 223 222 215 206 207 193 181 170 166 151 129 89 27
161 144 127 172 202 266 185 271 228 255 259 233 230 220 224 229 233 229 225 225 225 227 227 228 228 231 234 236 239 244 243 240 234 238 237 235 230 226 225 219 212 207 196 190 183 186 244 255 310
110 102 22 208 197 257 199 272 238 248 242 243 228 230 229 229 231 236 241 237 234 236 234 233 233 235 237 240 244 249 250 241 238 236 240 239 235 232 229 228 225 235 237 241 230 237 286 273 270
74 50 118 295 154 177 147 264 276 282 248 240 241 237 236 236 238 243 244 244 241 238 240 239 237 239 241 242 244 247 252 248 244 241 242 243 242 238 235 233 235 236 226 238 249 252 254 266 260
14 181 206 314 194 106 156 263 278 185 107 243 242 246 252 249 246 247 247 246 246 245 243 243 240 240 242 244 245 247 251 252 252 241 242 242 242 242 241 240 243 242 237 233 240 243 245 244 245
185 172 219 228 177 155 218 262 280 269 282 280 282 277 265 259 256 259 258 253 249 247 246 245 244 244 243 244 244 245 247 248 250 252 250 247 242 246 246 247 243 245 246 245 247 246 250 250 251
133 122 182 240 56 227 238 267 273 282 285 276 273 270 271 268 269 267 260 254 252 246 245 245 245 243 241 240 240 241 243 245 245 250 251 251 249 249 249 250 251 248 250 253 252 251 252 254 254
128 124 211 302 45 157 350 284 267 272 264 266 274 275 273 277 279 273 271 262 251 248 246 245 245 244 243 242 244 244 246 248 250 254 255 254 252 250 255 254 251 252 250 250 251 253 254 254 253
170 159 199 193 30 52 349 291 308 293 274 275 270 275 277 277 283 272 284 271 253 245 242 242 244 244 245 244 243 244 244 247 248 250 253 256 257 253 248 258 257 259 252 258 262 258 257 261 255
183 201 172 148 100 230 23 283 299 295 299 286 280 301 294 281 272 283 283 262 244 243 240 239 242 244 245 244 243 244 245 246 252 252 255 255 260 255 259 259 262 262 261 254 261 261 258 255 256
209 123 135 88 100 54 329 19 271 337 284 275 322 12 24 12 252 232 270 45 258 247 244 244 241 242 244 244 244 245 247 251 255 257 256 256 258 256 258 265 265 258 273 256 259 261 260 256 260
151 84 52 54 87 313 226 181 275 209 220 200 336 26 14 36 66 73 68 57 60 76 240 253 250 244 245 246 245 246 247 250 253 256 259 263 265 264 263 266 265 270 265 265 268 272 269 264 260
91 96 20 359 7 227 328 150 246 257 246 253 320 323 346 359 7 24 30 20 357 331 312 296 278 259 251 249 247 248 249 251 255 259 263 266 268 269 268 267 267 267 267 268 268 269 272 270 271
192 163 156 192 197 247 71 232 249 224 296 278 270 339 19 37 52 64 39 344 337 330 319 312 290 271 265 257 251 247 247 252 257 261 265 267 269 270 267 264 266 268 265 263 266 271 267 268 271
198 214 154 103 24 60 225 287 300 109 54 89 84 80 67 71 77 66 56 36 15 360 347 335 325 303 284 270 264 258 255 257 261 264 265 267 267 267 267 263 260 260 261 262 260 264 266 268 270
160 160 82 5 135 252 266 268 226 213 154 114 91 73 62 70 72 67 64 60 57 41 28 17 18 28 58 110 133 246 256 259 259 260 264 268 270 269 267 264 262 260 258 257 258 262 265 267 269
137 188 61 129 156 181 235 253 223 162 164 146 129 69 61 69 75 76 70 64 62 57 60 73 89 97 84 67 43 10 331 307 299 295 288 282 280 277 272 269 266 264 262 261 261 262 265 267 270
323 202 159 150 217 252 174 252 310 189 142 126 106 71 63 73 93 98 86 72 64 65 75 87 86 64 40 23 350 329 319 312 309 304 297 292 291 288 287 283 278 274 272 269 267 267 266 265 267